Tracking 34401 objects as of 17-Jun-2026
HD Live streaming from Space Station
objects crossing your sky now

OPS 9316 (IDSCS 6)

Track OPS 9316 (IDSCS 6) now!
OPS 9316 (IDSCS 6) is classified as:


NORAD ID: 2220
Int'l Code: 1966-053G
Perigee: 33,704.4 km
Apogee: 34,231.1 km
Inclination: 8.5 °
Period: 1,343.8 minutes
Semi major axis: 40338 km
RCS: 0.0794 m2 (small)
Launch date: June 16, 1966
Source: United States (US)
Launch site: AIR FORCE EASTERN TEST RANGE (AFETR)
Your satellite tracking list
Your tracking list is empty




NASA's NSSDC Master Catalog

Two Line Element Set (TLE):
1  2220U 66053G   26167.48204852 -.00000089  00000-0  00000+0 0  9998
2  2220   8.4700  46.1418 0065291 182.4123  51.7929  1.07156624139047
Source of the keplerian elements: AFSPC